Miscellaneous Local Product
Issued by NWS North Platte, NE

Home | Current Version | Previous Version | Graphics & Text | Print | Product List | Glossary On
Versions: 1 2 3 4 5 6 7 8 9 10 11 12 13 14 15 16 17 18 19 20 21 22 23 24 25 26 27 28 29 30 31 32 33 34 35 36 37 38 39 40 41 42 43 44 45 46 47 48 49 50
741
AXUS43 KLBF 040010
MISLBF


WESTERN AND NORTH CENTRAL NEBRASKA HOURLY WEATHER ROUNDUP
NATIONAL WEATHER SERVICE NORTH PLATTE NE
700 PM CDT TUE MAY 03 2016

NOTE: "FAIR" INDICATES FEW OR NO CLOUDS BELOW 12,000 FEET WITH NO
SIGNIFICANT WEATHER AND/OR OBSTRUCTIONS TO VISIBILITY.

NOTE: STATIONS NOT REPORTING VARIABLES SUCH AS SKY/WEATHER OR
PRESSURE ARE PROVIDED BY RAWS AND APRS NETWORKS AND ARE NOT UNDER
NATIONAL WEATHER SERVICE QUALITY CONTROL.

...OBSERVATIONS IN AND NEAR THE EASTERN PANHANDLE OF NEBRASKA...

CITY           SKY/WX    TMP DP  RH WIND       PRES   REMARKS
PINE RIDGE     SUNNY     70  36  28 N14       30.08R
CHADRON        SUNNY     72  39  30 N9        30.08S
ALLIANCE       SUNNY     68  37  32 N14       30.09S
SIDNEY         SUNNY     68  26  20 N14       30.13S
BIG SPRINGS      N/A     71  29  21 NW12        N/A
$$

...OBSERVATIONS IN NORTHERN NEBRASKA AND FAR SOUTHERN SOUTH DAKOTA...

CITY           SKY/WX    TMP DP  RH WIND       PRES   REMARKS
WINNER         FAIR      73  43  33 NW13      29.96F
VALENTINE      SUNNY     71  37  28 N16       30.01S
THEDFORD       SUNNY     70  35  27 N12       30.03F
AINSWORTH      SUNNY     68  37  32 N17       30.01S
O`NEILL        SUNNY     69  38  31 NW18      29.96F
ORD            SUNNY     68  40  35 NW14      29.96F
BROKEN BOW     LGT RAIN  69  39  33 N15       30.00S
VALENTINE NWR    N/A     70  35  27 N13G25      N/A
BUTTE            N/A     69  44  41 W13G23      N/A
EWING            N/A     69  42  38 NW12G20     N/A
$$

...OBSERVATIONS IN SOUTHWEST NEBRASKA AND FAR NORTHEAST COLORADO...

CITY           SKY/WX    TMP DP  RH WIND       PRES   REMARKS
HOLYOKE        FAIR      72  32  23 N15       30.10S
IMPERIAL       SUNNY     69  35  28 N13       30.07S
OGALLALA       SUNNY     68  30  24 N10       30.07S
NORTH PLATTE   SUNNY     69  34  27 NW15      30.03S
MCCOOK         SUNNY     68  40  35 N12       30.04S
LEXINGTON      SUNNY     67  42  39 NW13      30.02S
PAXTON           N/A     70  41  34 N9          N/A
STAPLETON        N/A     70  40  33 CALM        N/A
GOTHENBURG       N/A     69  34  27 NW5         N/A
CALLAWAY         N/A     68  39  34 NW14        N/A
$$

...OBSERVATIONS IN CENTRAL LINCOLN COUNTY AREA...

CITY           SKY/WX    TMP DP  RH WIND       PRES   REMARKS
N.P. AIRPORT   SUNNY     69  34  27 NW15      30.03S
N.P. DOWNTOWN    N/A     70  38  31 N8          N/A
$$

...SOME OBSERVATIONS FROM AROUND THE REGION...

CITY           SKY/WX    TMP DP  RH WIND       PRES   REMARKS
DENVER         MOSUNNY   65  28  24 N15G21    30.20F
LARAMIE        SUNNY     58  31  35 N5        30.27S
CHEYENNE       SUNNY     62  30  29 N14       30.22F
SCOTTSBLUFF    SUNNY     73  35  25 N13       30.10S
RAPID CITY     SUNNY     72  38  29 N20       30.07S
BISMARCK       SUNNY     73  33  23 N21G29    29.98S
PIERRE         SUNNY     75  41  29 N15G25    29.93R
SIOUX FALLS    MOSUNNY   71  42  35 W16G23    29.80F
OMAHA          PTSUNNY   71  42  35 W13       29.89F
GRAND ISLAND   SUNNY     68  41  37 W13       29.98F
KANSAS CITY    MOSUNNY   67  42  40 NW8       29.95F
WICHITA        PTSUNNY   70  45  40 S6        29.98F
OKLAHOMA CITY  MOSUNNY   68  46  45 S7        30.02R
DALLAS         MOSUNNY   72  42  34 N8        30.03R
AMARILLO       SUNNY     69  35  28 N20G29    30.10R
DODGE CITY     SUNNY     64  39  39 N9        30.06S
HAYS           SUNNY     66  43  42 NW7       30.03S
GOODLAND       SUNNY     66  34  30 N15       30.09S
$$




USA.gov is the U.S. government's official web portal to all federal, state and local government web resources and services.